Regional Weather Roundup
Issued by NWS Bismarck, ND

Home | Current Version | Previous Version | Text Only | Print | Product List | Glossary On
Versions: 1 2 3 4 5 6 7 8 9 10 11 12 13 14 15 16 17 18 19 20 21 22 23 24 25 26 27 28 29 30 31 32 33 34 35 36 37 38 39 40 41 42 43 44 45 46 47 48 49 50
000
ASUS43 KBIS 190510
RWRBIS

NWR BROADCAST TEXT
NATIONAL WEATHER SERVICE BISMARCK ND
1100 PM CST THU DEC 18 2014

NOTE: "FAIR" INDICATES FEW OR NO CLOUDS BELOW 12,000 FEET WITH NO
SIGNIFICANT WEATHER AND/OR OBSTRUCTIONS TO VISIBILITY.


CITY           SKY/WX    TMP DP  RH WIND       PRES   REMARKS
WILLISTON      CLOUDY    28  27  96 CALM      29.92S FOG
MINOT          CLOUDY    24  21  88 E3        29.96S FOG
MINOT AFB      CLOUDY    24  23  99 E5        29.96S WCI  18
BISMARCK       CLOUDY    28  27  96 S5        30.00F
DICKINSON      PTCLDY    27  21  78 SW8       29.91S WCI  19
GARRISON         N/A     29  27  92 S7        29.95F
HETTINGER ARPT CLEAR     22  20  92 CALM      29.96S
JAMESTOWN      CLOUDY    24  22  91 S10       30.06R FOG     WCI  14
BEACH          FAIR      30  27  86 SW10      29.92F
HAZEN          FAIR      27  25  93 S5        29.97S
LINTON         CLOUDY    27  27 100 S9        30.02F WCI  17
MANDAN         FAIR      25  23  93 S9        29.99F WCI  15
STANLEY        FOG       27  27 100 S6        29.91F VSB 3/4 WCI  20
TIOGA          FOG       27  27 100 SW6       29.94S VSB 3/4 WCI  20
$$

CITY           SKY/WX    TMP DP  RH WIND       PRES   REMARKS
GRAND FORKS    CLOUDY    20  16  84 S9        30.15R WCI   9
GRAND FORKS AF CLOUDY    20  20  99 S10       30.14S WCI   8
DEVILS LAKE    CLOUDY    21  14  73 S13       30.02S WCI   9
FARGO          LGT SNOW  22  17  81 S15       30.17R WCI   9
CANDO          CLOUDY    23  21  93 S10       30.03S FOG     WCI  12
CAVALIER       MOCLDY    19  16  86 S10       30.12S WCI   8
LANGDON        CLOUDY    21  19  93 S14       30.03F FOG     WCI   8
ROLLA          CLOUDY    19  19 100 S7        29.99F FOG     WCI  10
WALHALLA         N/A     19  19 100 SE10      30.10F WCI   8
$$

CITY           SKY/WX    TMP DP  RH WIND       PRES   REMARKS
ABERDEEN       CLOUDY    27  23  85 S8        30.12S WCI  19
MOBRIDGE       CLEAR     22  20  92 SE8       30.00F WCI  12
BUFFALO          N/A     28  22  78 W9        29.89S WCI  19
RAPID CITY     CLEAR     23  18  81 W6        30.01S WCI  16
GLASGOW        PTCLDY    21  19  92 CALM      29.90S FOG
SIDNEY         PTCLDY    19  18  93 CALM      29.93F
WOLF POINT     FOG       19  16  88 CALM      29.93S VSB 1/4
GLENDIVE       CLOUDY    28  25  86 S9        29.93S WCI  20
MILES CITY     CLOUDY    29  24  82 S5        29.95S
BAKER          PTCLDY    31  25  78 SW10      29.94F
$$

CITY           SKY/WX    TMP DP  RH WIND       PRES   REMARKS
BILLINGS       CLEAR     31  19  61 SW21G28   29.97F WCI  18
GREAT FALLS    CLEAR     34  26  72 SW14      29.90R
REGINA         FOG       23  23 100 SW8       29.90S VSB 3/4 WCI  14
ESTEVAN        LGT SNOW  25  25 100 SW3       29.92F FOG
$$




USA.gov is the U.S. government's official web portal to all federal, state and local government web resources and services.